Regional Weather Roundup
Issued by NWS

Home | Current Version | Previous Version | Text Only | Print | Product List | Glossary On
Versions: 1 2 3 4 5 6 7 8 9 10 11 12 13 14 15 16 17 18 19 20 21 22 23 24 25 26 27 28 29 30 31 32 33 34 35 36 37 38 39 40 41 42 43 44 45 46 47 48 49 50
000
ASUS43 KLMK 231010
RWRKY
KENTUCKY REGIONAL WEATHER ROUNDUP
NATIONAL WEATHER SERVICE LOUISVILLE KY
500 AM EST FRI FEB 23 2018

NOTE "FAIR" INDICATES FEW OR NO CLOUDS BELOW 12,000 FEET
WITH NO SIGNIFICANT WEATHER AND/OR OBSTRUCTIONS TO VISIBILITY.

KYZ001>023-026-027-061>063-070>075-231100-
WESTERN AND SOUTH CENTRAL KENTUCKY

CITY           SKY/WX    TMP DP  RH WIND       PRES   REMARKS
PADUCAH        HVY RAIN  58  57  97 S12       30.17F FOG
HENDERSON      LGT RAIN  55  55 100 S14       30.18F
OWENSBORO      RAIN      53  53 100 S8        30.21F
HOPKINSVILLE   LGT RAIN  62  62 100 SW14      30.25R
BOWLING GREEN  CLOUDY    64  61  90 S12       30.24R
GLASGOW        MOCLDY    63  63 100 S8        30.25S
$$

KYZ024-025-028>034-038-045-046-053-231100-
NORTH CENTRAL KENTUCKY

CITY           SKY/WX    TMP DP  RH WIND       PRES   REMARKS
LOUISVILLE/SDF RAIN      50  49  96 SE9       30.23F FOG
LOUISVILLE/LOU HVY RAIN  50  50 100 SE8       30.24F FOG
FORT KNOX      HVY RAIN  50  50 100 E3        30.26S FOG
$$

KYZ035>037-039>044-047>052-055>060-089>105-231100-
NORTHEAST KENTUCKY

CITY           SKY/WX    TMP DP  RH WIND       PRES   REMARKS
LEXINGTON      FAIR      57  54  89 SE13G22   30.25F
COVINGTON      RAIN      47  47 100 E3        30.25F FOG
FRANKFORT      FOG       52  49  89 E5        30.23F VSB 1/2
$$

KYZ054-064>069-076>088-106>120-231100-
SOUTHEAST KENTUCKY

CITY           SKY/WX    TMP DP  RH WIND       PRES   REMARKS
JACKSON        CLOUDY    57  54  89 S3        30.32S
LONDON         FAIR      55  54  96 SE3       30.31F
SOMERSET       FAIR      57  57 100 S3        30.30F
MIDDLESBORO    FAIR      66  59  77 SW13G20   30.36S
MONTICELLO     NOT AVBL
$$




USA.gov is the U.S. government's official web portal to all federal, state and local government web resources and services.